[ hide orbit diagram ]
For accurate long-term ephemerides, please instead use our Horizons system.This orbit viewer was implemented using two-body methods, and hence should not be used for determining accurate long-term trajectories (over several years or decades) or planetary encounter circumstances.
Orbital Elements at Epoch 2459000.5 (2020-May-31.0) TDB
Reference: JPL 20 (heliocentric ecliptic J2000)
Element | Value | Uncertainty (1-sigma) | Units |
e | .1142182306443529 | 7.4935e-08 | |
a | 3.127033659762875 | 4.2329e-08 | au |
q | 2.769869407979423 | 2.2089e-07 | au |
i | 11.13094986494246 | 5.7015e-06 | deg |
node | 260.9501652565547 | 3.9016e-05 | deg |
peri | 294.4483116197638 | 4.6034e-05 | deg |
M | 214.6001282009803 | 2.7701e-05 | deg |
tp | 2459816.253195692902 (2022-Aug-24.75319569) | 0.000162 | TDB |
period | 2019.748345138669 5.53 | 4.101e-05 1.123e-07 | d yr |
n | .1782400272125405 | 3.6191e-09 | deg/d |
Q | 3.484197911546326 | 4.7164e-08 | au |
|
| | Orbit Determination Parameters
Additional Information
|
[ show covariance matrix ]
Physical Parameter Table
Parameter |
Symbol |
Value |
Units |
Sigma |
Reference |
Notes |
absolute magnitude |
H |
14.7 |
|
n/a |
MPO454690 |
|
diameter |
diameter |
5.042 |
km |
0.397 |
urn:nasa:pds:neowise_diameters_albedos::2.0[mainbelt] (http://adsabs.harvard.edu/abs/2011ApJ...741...68M) |
|
geometric albedo |
albedo |
0.110 |
|
0.015 |
urn:nasa:pds:neowise_diameters_albedos::2.0[mainbelt] (http://adsabs.harvard.edu/abs/2011ApJ...741...68M) |
|
|
233677 (2008 RJ70) Discovered 2008-Sep-05 by Spacewatch at Kitt Peak |
Reference: 20100228/Numbers.arc | Last Updated: 2010-03-03 |
|
[ show close-approach data ]
|